Location: Conjunto Santa Maria
(19.9513°S, 43.9599°W)
Time: 00:42:55
(UTC+00:00)

Delta 128 - Pass Details

Date: 21 January 2021
Orbit: 608 x 1216 km, 28.0° (Epoch: 25 February)

Event Time Altitude Azimuth Distance (km) Brightness Sun altitude
Rises 23:43:21 0° 292° (WNW) 2,884 7.4 -26.2°
Reaches altitude 10° 23:45:34 10° 292° (WNW) 2,016 6.5 -26.7°
Enters shadow 23:49:08 54° 291° (WNW) 817 4.2 -27.3°
